Location: Caltech
(34.1382°N, 118.1253°W)
Time: 09:55:09
(UTC-07:00)

AO-Echo - Visible Passes

Search period start: 30 April 2016 00:00
Search period end: 10 May 2016 00:00
Orbit: 693 x 812 km, 98.3° (Epoch: 29 April)

Date Brightness Start Highest point End Pass type
(mag) Time Alt. Az. Time Alt. Az. Time Alt. Az.
30 Apr ? 02:41:26 10° N 02:43:36 27° N 02:43:36 27° N visible
01 May ? 02:01:09 10° NNE 02:02:47 21° NE 02:02:47 21° NE visible
01 May ? 03:41:12 10° NNW 03:42:43 15° NW 03:42:43 15° NW visible
02 May ? 02:59:28 10° N 03:01:54 27° NNW 03:01:54 27° NNW visible
03 May ? 02:18:50 10° NNE 02:21:04 28° NNE 02:21:04 28° NNE visible
03 May ? 04:00:54 10° NW 04:01:01 10° NW 04:01:01 10° NW visible
04 May ? 01:39:05 10° NE 01:40:15 16° NE 01:40:15 16° NE visible
04 May ? 03:17:43 10° NNW 03:20:11 23° NW 03:20:11 23° NW visible
05 May ? 02:36:41 10° N 02:39:21 33° N 02:39:21 33° N visible
06 May ? 01:56:30 10° NNE 01:58:32 23° NE 01:58:32 23° NE visible
06 May ? 03:36:13 10° NNW 03:38:29 17° NW 03:38:29 17° NW visible
07 May ? 01:17:37 10° ENE 01:17:42 10° ENE 01:17:42 10° ENE visible
07 May ? 02:54:42 10° N 02:57:39 33° NNW 02:57:39 33° NNW visible
08 May ? 02:14:09 10° NNE 02:16:50 32° NNE 02:16:50 32° NNE visible
08 May ? 03:55:20 10° NW 03:56:46 12° WNW 03:56:46 12° WNW visible
09 May ? 01:34:31 10° NE 01:36:00 17° ENE 01:36:00 17° ENE visible
09 May ? 03:12:53 10° N 03:15:56 27° NW 03:15:56 27° NW visible
